Simultaneous Nadir Overpasses (SNOs) Predictions

Prediction of SNOs between METOP-B and NOAA-19 Satellite Orbit:

Table of predicted SNOs for the next 14.0 days since TLE Epoch: 3/8/2019
Index Date (METOP-B) Time (METOP-B) Lat,Lon (METOP-B) SZA (METOP-B ) Date (NOAA-19) Time (NOAA-19) Lat,Lon (NOAA-19) SZA (NOAA-19 ) Distance(km) Time Diff (sec)
1 03/17/2019 13:59:43 -79.09, 164.68 99.40 03/17/2019 13:58:36 -79.08, 164.60 99.42 2.14 67
2 03/17/2019 14:50:24 79.07, -28.12 80.57 03/17/2019 14:49:35 79.07, -28.08 80.56 0.90 49
3 03/17/2019 15:41:05 -79.08, 139.25 99.44 03/17/2019 15:40:37 -79.08, 139.08 99.45 3.61 28
4 03/17/2019 16:31:46 79.06, -53.55 80.53 03/17/2019 16:31:36 79.07, -53.60 80.54 1.80 10
5 03/17/2019 17:22:27 -79.06, 113.81 99.49 03/17/2019 17:22:37 -79.05, 113.81 99.50 1.26 10
6 03/17/2019 18:13:08 79.05, -78.99 80.48 03/17/2019 18:13:36 79.04, -78.86 80.49 2.82 28
7 03/17/2019 19:03:49 -79.05, 88.38 99.53 03/17/2019 19:04:38 -79.06, 88.29 99.52 1.93 49
8 03/17/2019 19:54:30 79.03,-104.42 80.44 03/17/2019 19:55:37 79.05,-104.38 80.46 1.81 67




NCC Satellite Simultaneous Nadir Overpasses (SNOs) Prediction Service
